Year,Month,Day,Hour,Minute,Value (Times are PST for temperature in C)
2019,03,20,00,00,13.60
2019,03,20,00,01,13.60
2019,03,20,00,02,13.70
2019,03,20,00,03,13.70
2019,03,20,00,04,13.80
2019,03,20,00,05,14.10
2019,03,20,00,06,14.40
2019,03,20,00,07,14.70
2019,03,20,00,08,15.10
2019,03,20,00,09,15.40
2019,03,20,00,10,15.70
2019,03,20,00,11,16.10
2019,03,20,00,12,16.20
2019,03,20,00,13,16.30
2019,03,20,00,14,16.40
2019,03,20,00,15,16.60
2019,03,20,00,16,16.90
2019,03,20,00,17,17.10
2019,03,20,00,18,17.30
2019,03,20,00,19,17.40
2019,03,20,00,20,17.70
2019,03,20,00,21,17.80
2019,03,20,00,22,17.90
2019,03,20,00,23,18.10
2019,03,20,00,24,18.00
2019,03,20,00,25,17.90
2019,03,20,00,26,17.90
2019,03,20,00,27,17.80
2019,03,20,00,28,17.60
2019,03,20,00,29,17.40
2019,03,20,00,30,17.00
2019,03,20,00,31,16.80
2019,03,20,00,32,16.70
2019,03,20,00,33,16.60
2019,03,20,00,34,16.40
2019,03,20,00,35,16.40
2019,03,20,00,36,16.40
2019,03,20,00,37,16.50
2019,03,20,00,38,16.50
2019,03,20,00,39,16.60
2019,03,20,00,40,16.60
2019,03,20,00,41,16.70
2019,03,20,00,42,16.90
2019,03,20,00,43,17.30
2019,03,20,00,44,17.60
2019,03,20,00,45,17.80
2019,03,20,00,46,17.90
2019,03,20,00,47,17.90
2019,03,20,00,48,17.90
2019,03,20,00,49,17.90
2019,03,20,00,50,18.00
2019,03,20,00,51,18.00
2019,03,20,00,52,18.00
2019,03,20,00,53,17.90
2019,03,20,00,54,17.90
2019,03,20,00,55,17.90
2019,03,20,00,56,17.90
2019,03,20,00,57,17.80
2019,03,20,00,58,17.70
2019,03,20,00,59,17.60
2019,03,20,01,00,17.40
2019,03,20,01,01,17.40
2019,03,20,01,02,17.30
2019,03,20,01,03,17.20
2019,03,20,01,04,17.20
2019,03,20,01,05,17.10
2019,03,20,01,06,17.30
2019,03,20,01,07,17.40
2019,03,20,01,08,17.50
2019,03,20,01,09,17.70
2019,03,20,01,10,17.80
2019,03,20,01,11,17.90
2019,03,20,01,12,17.90
2019,03,20,01,13,17.80
2019,03,20,01,14,17.70
2019,03,20,01,15,17.50
2019,03,20,01,16,17.40
2019,03,20,01,17,17.30
2019,03,20,01,18,17.20
2019,03,20,01,19,17.10
2019,03,20,01,20,17.10
2019,03,20,01,21,17.00
2019,03,20,01,22,16.90
2019,03,20,01,23,16.80
2019,03,20,01,24,16.70
2019,03,20,01,25,16.50
2019,03,20,01,26,16.40
2019,03,20,01,27,16.30
2019,03,20,01,28,16.20
2019,03,20,01,29,16.10
2019,03,20,01,30,16.00
2019,03,20,01,31,16.00
2019,03,20,01,32,16.00
2019,03,20,01,33,16.00
2019,03,20,01,34,16.10
2019,03,20,01,35,16.10
2019,03,20,01,36,16.10
2019,03,20,01,37,16.20
2019,03,20,01,38,16.10
2019,03,20,01,39,16.10
2019,03,20,01,40,16.10
2019,03,20,01,41,16.00
2019,03,20,01,42,16.00
2019,03,20,01,43,15.90
2019,03,20,01,44,15.90
2019,03,20,01,45,15.90
2019,03,20,01,46,15.80
2019,03,20,01,47,15.90
2019,03,20,01,48,15.90
2019,03,20,01,49,15.90
2019,03,20,01,50,16.00
2019,03,20,01,51,16.00
2019,03,20,01,52,16.00
2019,03,20,01,53,16.00
2019,03,20,01,54,15.90
2019,03,20,01,55,15.80
2019,03,20,01,56,15.80
2019,03,20,01,57,15.80
2019,03,20,01,58,15.80
2019,03,20,01,59,15.90
2019,03,20,02,00,15.90
2019,03,20,02,01,15.90
2019,03,20,02,02,15.80
2019,03,20,02,03,15.60
2019,03,20,02,04,15.30
2019,03,20,02,05,15.10
2019,03,20,02,06,14.90
2019,03,20,02,07,14.70
2019,03,20,02,08,14.70
2019,03,20,02,09,14.80
2019,03,20,02,10,15.00
2019,03,20,02,11,15.10
2019,03,20,02,12,15.10
2019,03,20,02,13,15.00
2019,03,20,02,14,15.00
2019,03,20,02,15,15.00
2019,03,20,02,16,15.00
2019,03,20,02,17,14.90
2019,03,20,02,18,14.90
2019,03,20,02,19,14.80
2019,03,20,02,20,14.70
2019,03,20,02,21,14.60
2019,03,20,02,22,14.60
2019,03,20,02,23,14.60
2019,03,20,02,24,14.60
2019,03,20,02,25,14.70
2019,03,20,02,26,14.70
2019,03,20,02,27,14.80
2019,03,20,02,28,14.90
2019,03,20,02,29,14.90
2019,03,20,02,30,14.90
2019,03,20,02,31,14.90
2019,03,20,02,32,15.00
2019,03,20,02,33,15.10
2019,03,20,02,34,15.20
2019,03,20,02,35,15.40
2019,03,20,02,36,15.50
2019,03,20,02,37,15.60
2019,03,20,02,38,15.50
2019,03,20,02,39,15.40
2019,03,20,02,40,15.30
2019,03,20,02,41,15.20
2019,03,20,02,42,15.10
2019,03,20,02,43,15.00
2019,03,20,02,44,14.90
2019,03,20,02,45,14.80
2019,03,20,02,46,14.70
2019,03,20,02,47,14.60
2019,03,20,02,48,14.60
2019,03,20,02,49,14.70
2019,03,20,02,50,14.70
2019,03,20,02,51,14.80
2019,03,20,02,52,14.80
2019,03,20,02,53,15.00
2019,03,20,02,54,15.30
2019,03,20,02,55,15.50
2019,03,20,02,56,15.70
2019,03,20,02,57,15.80
2019,03,20,02,58,15.80
2019,03,20,02,59,15.70
2019,03,20,03,00,15.60
2019,03,20,03,01,15.60
2019,03,20,03,02,15.50
2019,03,20,03,03,15.40
2019,03,20,03,04,15.30
2019,03,20,03,05,15.20
2019,03,20,03,06,15.00
2019,03,20,03,07,14.80
2019,03,20,03,08,14.60
2019,03,20,03,09,14.50
2019,03,20,03,10,14.40
2019,03,20,03,11,14.30
2019,03,20,03,12,14.30
2019,03,20,03,13,14.30
2019,03,20,03,14,14.40
2019,03,20,03,15,14.40
2019,03,20,03,16,14.40
2019,03,20,03,17,14.40
2019,03,20,03,18,14.50
2019,03,20,03,19,14.50
2019,03,20,03,20,14.60
2019,03,20,03,21,14.60
2019,03,20,03,22,14.60
2019,03,20,03,23,14.70
2019,03,20,03,24,14.70
2019,03,20,03,25,14.70
2019,03,20,03,26,14.80
2019,03,20,03,27,14.90
2019,03,20,03,28,14.90
2019,03,20,03,29,14.90
2019,03,20,03,30,15.00
2019,03,20,03,31,15.10
2019,03,20,03,32,15.10
2019,03,20,03,33,15.10
2019,03,20,03,34,15.10
2019,03,20,03,35,15.10
2019,03,20,03,36,15.10
2019,03,20,03,37,15.10
2019,03,20,03,38,15.10
2019,03,20,03,39,15.00
2019,03,20,03,40,15.00
2019,03,20,03,41,15.00
2019,03,20,03,42,15.00
2019,03,20,03,43,15.00
2019,03,20,03,44,15.00
2019,03,20,03,45,15.00
2019,03,20,03,46,15.10
2019,03,20,03,47,15.10
2019,03,20,03,48,15.10
2019,03,20,03,49,15.00
2019,03,20,03,50,14.90
2019,03,20,03,51,14.90
2019,03,20,03,52,14.90
2019,03,20,03,53,14.80
2019,03,20,03,54,14.80
2019,03,20,03,55,14.80
2019,03,20,03,56,14.80
2019,03,20,03,57,14.70
2019,03,20,03,58,14.70
2019,03,20,03,59,14.70
2019,03,20,04,00,14.70
2019,03,20,04,01,14.70
2019,03,20,04,02,14.70
2019,03,20,04,03,14.70
2019,03,20,04,04,14.70
2019,03,20,04,05,14.70
2019,03,20,04,06,14.80
2019,03,20,04,07,14.80
2019,03,20,04,08,14.80
2019,03,20,04,09,14.80
2019,03,20,04,10,14.80
2019,03,20,04,11,14.70
2019,03,20,04,12,14.70
2019,03,20,04,13,14.60
2019,03,20,04,14,14.50
2019,03,20,04,15,14.40
2019,03,20,04,16,14.40
2019,03,20,04,17,14.40
2019,03,20,04,18,14.50
2019,03,20,04,19,14.50
2019,03,20,04,20,14.50
2019,03,20,04,21,14.50
2019,03,20,04,22,14.50
2019,03,20,04,23,14.50
2019,03,20,04,24,14.50
2019,03,20,04,25,14.50
2019,03,20,04,26,14.50
2019,03,20,04,27,14.40
2019,03,20,04,28,14.40
2019,03,20,04,29,14.40
2019,03,20,04,30,14.40
2019,03,20,04,31,14.40
2019,03,20,04,32,14.30
2019,03,20,04,33,14.30
2019,03,20,04,34,14.30
2019,03,20,04,35,14.30
2019,03,20,04,36,14.30
2019,03,20,04,37,14.40
2019,03,20,04,38,14.50
2019,03,20,04,39,14.50
2019,03,20,04,40,14.60
2019,03,20,04,41,14.70
2019,03,20,04,42,14.70
2019,03,20,04,43,14.80
2019,03,20,04,44,14.90
2019,03,20,04,45,14.90
2019,03,20,04,46,14.90
2019,03,20,04,47,14.90
2019,03,20,04,48,14.90
2019,03,20,04,49,14.80
2019,03,20,04,50,14.80
2019,03,20,04,51,14.70
2019,03,20,04,52,14.70
2019,03,20,04,53,14.70
2019,03,20,04,54,14.70
2019,03,20,04,55,14.70
2019,03,20,04,56,14.60
2019,03,20,04,57,14.60
2019,03,20,04,58,14.50
2019,03,20,04,59,14.40
2019,03,20,05,00,14.40
2019,03,20,05,01,14.40
2019,03,20,05,02,14.40
2019,03,20,05,03,14.40
2019,03,20,05,04,14.40
2019,03,20,05,05,14.40
2019,03,20,05,06,14.40
2019,03,20,05,07,14.40
2019,03,20,05,08,14.40
2019,03,20,05,09,14.40
2019,03,20,05,10,14.40
2019,03,20,05,11,14.30
2019,03,20,05,12,14.30
2019,03,20,05,13,14.30
2019,03,20,05,14,14.30
2019,03,20,05,15,14.30
2019,03,20,05,16,14.30
2019,03,20,05,17,14.30
2019,03,20,05,18,14.40
2019,03,20,05,19,14.40
2019,03,20,05,20,14.30
2019,03,20,05,21,14.30
2019,03,20,05,22,14.30
2019,03,20,05,23,14.20
2019,03,20,05,24,14.20
2019,03,20,05,25,14.20
2019,03,20,05,26,14.10
2019,03,20,05,27,14.00
2019,03,20,05,28,13.90
2019,03,20,05,29,13.80
2019,03,20,05,30,13.70
2019,03,20,05,31,13.70
2019,03,20,05,32,13.70
2019,03,20,05,33,13.60
2019,03,20,05,34,13.60
2019,03,20,05,35,13.60
2019,03,20,05,36,13.60
2019,03,20,05,37,13.50
2019,03,20,05,38,13.50
2019,03,20,05,39,13.40
2019,03,20,05,40,13.40
2019,03,20,05,41,13.30
2019,03,20,05,42,13.30
2019,03,20,05,43,13.20
2019,03,20,05,44,13.10
2019,03,20,05,45,13.00
2019,03,20,05,46,13.00
2019,03,20,05,47,12.90
2019,03,20,05,48,12.80
2019,03,20,05,49,12.80
2019,03,20,05,50,12.70
2019,03,20,05,51,12.70
2019,03,20,05,52,12.60
2019,03,20,05,53,12.60
2019,03,20,05,54,12.70
2019,03,20,05,55,12.70
2019,03,20,05,56,12.80
2019,03,20,05,57,12.80
2019,03,20,05,58,12.90
2019,03,20,05,59,12.90
2019,03,20,06,00,13.00
2019,03,20,06,01,13.00
2019,03,20,06,02,13.00
2019,03,20,06,03,13.10
2019,03,20,06,04,13.10
2019,03,20,06,05,13.10
2019,03,20,06,06,13.10
2019,03,20,06,07,13.10
2019,03,20,06,08,13.10
2019,03,20,06,09,13.10
2019,03,20,06,10,13.10
2019,03,20,06,11,13.10
2019,03,20,06,12,13.10
2019,03,20,06,13,13.10
2019,03,20,06,14,13.00
2019,03,20,06,15,13.00
2019,03,20,06,16,12.90
2019,03,20,06,17,12.90
2019,03,20,06,18,12.80
2019,03,20,06,19,12.80
2019,03,20,06,20,12.70
2019,03,20,06,21,12.70
2019,03,20,06,22,12.60
2019,03,20,06,23,12.60
2019,03,20,06,24,12.60
2019,03,20,06,25,12.70
2019,03,20,06,26,12.70
2019,03,20,06,27,12.80
2019,03,20,06,28,12.80
2019,03,20,06,29,12.90
2019,03,20,06,30,12.90
2019,03,20,06,31,12.90
2019,03,20,06,32,12.90
2019,03,20,06,33,13.00
2019,03,20,06,34,13.00
2019,03,20,06,35,13.00
2019,03,20,06,36,13.10
2019,03,20,06,37,13.10
2019,03,20,06,38,13.10
2019,03,20,06,39,13.10
2019,03,20,06,40,13.10
2019,03,20,06,41,13.10
2019,03,20,06,42,13.10
2019,03,20,06,43,13.20
2019,03,20,06,44,13.30
2019,03,20,06,45,13.40
2019,03,20,06,46,13.40
2019,03,20,06,47,13.40
2019,03,20,06,48,13.40
2019,03,20,06,49,13.30
2019,03,20,06,50,13.30
2019,03,20,06,51,13.30
2019,03,20,06,52,13.30
2019,03,20,06,53,13.20
2019,03,20,06,54,13.20
2019,03,20,06,55,13.20
2019,03,20,06,56,13.30
2019,03,20,06,57,13.30
2019,03,20,06,58,13.30
2019,03,20,06,59,13.20
2019,03,20,07,00,13.20
2019,03,20,07,01,13.20
2019,03,20,07,02,13.20
2019,03,20,07,03,13.20
2019,03,20,07,04,13.10
2019,03,20,07,05,13.10
2019,03,20,07,06,13.10
2019,03,20,07,07,13.10
2019,03,20,07,08,13.10
2019,03,20,07,09,13.10
2019,03,20,07,10,13.10
2019,03,20,07,11,13.10
2019,03,20,07,12,13.00
2019,03,20,07,13,13.00
2019,03,20,07,14,12.90
2019,03,20,07,15,12.90
2019,03,20,07,16,13.00
2019,03,20,07,17,13.00
2019,03,20,07,18,13.00
2019,03,20,07,19,13.00
2019,03,20,07,20,13.10
2019,03,20,07,21,13.10
2019,03,20,07,22,13.00
2019,03,20,07,23,13.00
2019,03,20,07,24,12.90
2019,03,20,07,25,12.90
2019,03,20,07,26,12.80
2019,03,20,07,27,12.80
2019,03,20,07,28,12.80
2019,03,20,07,29,12.80
2019,03,20,07,30,12.80
2019,03,20,07,31,12.80
2019,03,20,07,32,12.80
2019,03,20,07,33,12.80
2019,03,20,07,34,12.80
2019,03,20,07,35,12.80
2019,03,20,07,36,12.80
2019,03,20,07,37,12.80
2019,03,20,07,38,12.70
2019,03,20,07,39,12.70
2019,03,20,07,40,12.70
2019,03,20,07,41,12.70
2019,03,20,07,42,12.70
2019,03,20,07,43,12.80
2019,03,20,07,44,12.80
2019,03,20,07,45,12.80
2019,03,20,07,46,12.80
2019,03,20,07,47,12.90
2019,03,20,07,48,12.90
2019,03,20,07,49,12.90
2019,03,20,07,50,12.90
2019,03,20,07,51,13.00
2019,03,20,07,52,13.00
2019,03,20,07,53,13.00
2019,03,20,07,54,13.00
2019,03,20,07,55,13.00
2019,03,20,07,56,13.00
2019,03,20,07,57,12.90
2019,03,20,07,58,12.90
2019,03,20,07,59,13.00
2019,03,20,08,00,13.00
2019,03,20,08,01,13.00
2019,03,20,08,02,13.00
2019,03,20,08,03,13.00
2019,03,20,08,04,13.00
2019,03,20,08,05,13.10
2019,03,20,08,06,13.10
2019,03,20,08,07,13.10
2019,03,20,08,08,13.10
2019,03,20,08,09,13.10
2019,03,20,08,10,13.10
2019,03,20,08,11,13.10
2019,03,20,08,12,13.10
2019,03,20,08,13,13.10
2019,03,20,08,14,13.10
2019,03,20,08,15,13.10
2019,03,20,08,16,13.10
2019,03,20,08,17,13.10
2019,03,20,08,18,13.10
2019,03,20,08,19,13.20
2019,03,20,08,20,13.20
2019,03,20,08,21,13.20
2019,03,20,08,22,13.20
2019,03,20,08,23,13.20
2019,03,20,08,24,13.20
2019,03,20,08,25,13.20
2019,03,20,08,26,13.30
2019,03,20,08,27,13.30
2019,03,20,08,28,13.30
2019,03,20,08,29,13.30
2019,03,20,08,30,13.40
2019,03,20,08,31,13.40
2019,03,20,08,32,13.40
2019,03,20,08,33,13.50
2019,03,20,08,34,13.50
2019,03,20,08,35,13.60
2019,03,20,08,36,13.60
2019,03,20,08,37,13.60
2019,03,20,08,38,13.70
2019,03,20,08,39,13.70
2019,03,20,08,40,13.80
2019,03,20,08,41,13.80
2019,03,20,08,42,13.80
2019,03,20,08,43,13.80
2019,03,20,08,44,13.80
2019,03,20,08,45,13.90
2019,03,20,08,46,13.90
2019,03,20,08,47,14.00
2019,03,20,08,48,14.10
2019,03,20,08,49,14.10
2019,03,20,08,50,14.10
2019,03,20,08,51,14.20
2019,03,20,08,52,14.20
2019,03,20,08,53,14.30
2019,03,20,08,54,14.30
2019,03,20,08,55,14.40
2019,03,20,08,56,14.50
2019,03,20,08,57,14.60
2019,03,20,08,58,14.60
2019,03,20,08,59,14.70
2019,03,20,09,00,14.70
2019,03,20,09,01,14.70
2019,03,20,09,02,14.80
2019,03,20,09,03,14.80
2019,03,20,09,04,14.80
2019,03,20,09,05,14.80
2019,03,20,09,06,14.90
2019,03,20,09,07,15.00
2019,03,20,09,08,15.00
2019,03,20,09,09,15.10
2019,03,20,09,10,15.10
2019,03,20,09,11,15.10
2019,03,20,09,12,15.20
2019,03,20,09,13,15.20
2019,03,20,09,14,15.30
2019,03,20,09,15,15.30
2019,03,20,09,16,15.40
2019,03,20,09,17,15.40
2019,03,20,09,18,15.50
2019,03,20,09,19,15.50
2019,03,20,09,20,15.50
2019,03,20,09,21,15.50
2019,03,20,09,22,15.50
2019,03,20,09,23,15.50
2019,03,20,09,24,15.60
2019,03,20,09,25,15.60
2019,03,20,09,26,15.60
2019,03,20,09,27,15.70
2019,03,20,09,28,15.70
2019,03,20,09,29,15.80
2019,03,20,09,30,15.80
2019,03,20,09,31,15.90
2019,03,20,09,32,15.90
2019,03,20,09,33,16.00
2019,03,20,09,34,16.00
2019,03,20,09,35,16.10
2019,03,20,09,36,16.10
2019,03,20,09,37,16.10
2019,03,20,09,38,16.10
2019,03,20,09,39,16.20
2019,03,20,09,40,16.20
2019,03,20,09,41,16.30
2019,03,20,09,42,16.30
2019,03,20,09,43,16.40
2019,03,20,09,44,16.50
2019,03,20,09,45,16.50
2019,03,20,09,46,16.60
2019,03,20,09,47,16.60
2019,03,20,09,48,16.70
2019,03,20,09,49,16.70
2019,03,20,09,50,16.70
2019,03,20,09,51,16.70
2019,03,20,09,52,16.80
2019,03,20,09,53,16.90
2019,03,20,09,54,16.90
2019,03,20,09,55,17.00
2019,03,20,09,56,17.00
2019,03,20,09,57,17.10
2019,03,20,09,58,17.10
2019,03,20,09,59,17.10
2019,03,20,10,00,17.20
2019,03,20,10,01,17.20
2019,03,20,10,02,17.30
2019,03,20,10,03,17.30
2019,03,20,10,04,17.30
2019,03,20,10,05,17.30
2019,03,20,10,06,17.30
2019,03,20,10,07,17.30
2019,03,20,10,08,17.30
2019,03,20,10,09,17.30
2019,03,20,10,10,17.40
2019,03,20,10,11,17.60
2019,03,20,10,12,17.60
2019,03,20,10,13,17.70
2019,03,20,10,14,17.70
2019,03,20,10,15,17.70
2019,03,20,10,16,17.70
2019,03,20,10,17,17.70
2019,03,20,10,18,17.70
2019,03,20,10,19,17.70
2019,03,20,10,20,17.80
2019,03,20,10,21,17.80
2019,03,20,10,22,17.80
2019,03,20,10,23,17.80
2019,03,20,10,24,17.80
2019,03,20,10,25,17.90
2019,03,20,10,26,17.90
2019,03,20,10,27,18.00
2019,03,20,10,28,18.10
2019,03,20,10,29,18.10
2019,03,20,10,30,18.10
2019,03,20,10,31,18.20
2019,03,20,10,32,18.30
2019,03,20,10,33,18.40
2019,03,20,10,34,18.50
2019,03,20,10,35,18.60
2019,03,20,10,36,18.70
2019,03,20,10,37,18.80
2019,03,20,10,38,18.90
2019,03,20,10,39,19.00
2019,03,20,10,40,19.00
2019,03,20,10,41,19.10
2019,03,20,10,42,19.10
2019,03,20,10,43,19.10
2019,03,20,10,44,19.30
2019,03,20,10,45,19.40
2019,03,20,10,46,19.40
2019,03,20,10,47,19.40
2019,03,20,10,48,19.40
2019,03,20,10,49,19.40
2019,03,20,10,50,19.40
2019,03,20,10,51,19.40
2019,03,20,10,52,19.40
2019,03,20,10,53,19.50
2019,03,20,10,54,19.70
2019,03,20,10,55,19.80
2019,03,20,10,56,20.00
2019,03,20,10,57,20.10
2019,03,20,10,58,20.20
2019,03,20,10,59,20.20
2019,03,20,11,00,20.20
2019,03,20,11,01,20.20
2019,03,20,11,02,20.30
2019,03,20,11,03,20.30
2019,03,20,11,04,20.20
2019,03,20,11,05,20.20
2019,03,20,11,06,20.30
2019,03,20,11,07,20.30
2019,03,20,11,08,20.40
2019,03,20,11,09,20.60
2019,03,20,11,10,20.80
2019,03,20,11,11,20.80
2019,03,20,11,12,20.90
2019,03,20,11,13,20.90
2019,03,20,11,14,20.90
2019,03,20,11,15,20.90
2019,03,20,11,16,20.90
2019,03,20,11,17,21.00
2019,03,20,11,18,21.10
2019,03,20,11,19,21.20
2019,03,20,11,20,21.30
2019,03,20,11,21,21.40
2019,03,20,11,22,21.50
2019,03,20,11,23,21.60
2019,03,20,11,24,21.70
2019,03,20,11,25,21.80
2019,03,20,11,26,21.80
2019,03,20,11,27,21.80
2019,03,20,11,28,21.80
2019,03,20,11,29,21.80
2019,03,20,11,30,21.60
2019,03,20,11,31,21.50
2019,03,20,11,32,21.40
2019,03,20,11,33,21.30
2019,03,20,11,34,21.30
2019,03,20,11,35,21.10
2019,03,20,11,36,21.00
2019,03,20,11,37,20.80
2019,03,20,11,38,20.60
2019,03,20,11,39,20.50
2019,03,20,11,40,20.50
2019,03,20,11,41,20.60
2019,03,20,11,42,20.60
2019,03,20,11,43,20.60
2019,03,20,11,44,20.70
2019,03,20,11,45,20.80
2019,03,20,11,46,21.00
2019,03,20,11,47,21.00
2019,03,20,11,48,21.00
2019,03,20,11,49,20.80
2019,03,20,11,50,20.80
2019,03,20,11,51,20.80
2019,03,20,11,52,20.80
2019,03,20,11,53,20.80
2019,03,20,11,54,20.80
2019,03,20,11,55,20.70
2019,03,20,11,56,20.60
2019,03,20,11,57,20.50
2019,03,20,11,58,20.40
2019,03,20,11,59,20.40
2019,03,20,12,00,20.50
2019,03,20,12,01,20.60
2019,03,20,12,02,20.70
2019,03,20,12,03,20.80
2019,03,20,12,04,20.70
2019,03,20,12,05,20.70
2019,03,20,12,06,20.70
2019,03,20,12,07,20.70
2019,03,20,12,08,20.70
2019,03,20,12,09,20.70
2019,03,20,12,10,20.70
2019,03,20,12,11,20.70
2019,03,20,12,12,20.70
2019,03,20,12,13,20.60
2019,03,20,12,14,20.60
2019,03,20,12,15,20.60
2019,03,20,12,16,20.60
2019,03,20,12,17,20.60
2019,03,20,12,18,20.50
2019,03,20,12,19,20.40
2019,03,20,12,20,20.40
2019,03,20,12,21,20.50
2019,03,20,12,22,20.70
2019,03,20,12,23,20.80
2019,03,20,12,24,20.90
2019,03,20,12,25,21.00
2019,03,20,12,26,21.20
2019,03,20,12,27,21.30
2019,03,20,12,28,21.40
2019,03,20,12,29,21.50
2019,03,20,12,30,21.50
2019,03,20,12,31,21.60
2019,03,20,12,32,21.60
2019,03,20,12,33,21.60
2019,03,20,12,34,21.50
2019,03,20,12,35,21.50
2019,03,20,12,36,21.60
2019,03,20,12,37,21.70
2019,03,20,12,38,21.70
2019,03,20,12,39,21.80
2019,03,20,12,40,21.80
2019,03,20,12,41,21.90
2019,03,20,12,42,22.00
2019,03,20,12,43,22.10
2019,03,20,12,44,22.10
2019,03,20,12,45,22.10
2019,03,20,12,46,22.10
2019,03,20,12,47,22.10
2019,03,20,12,48,22.10
2019,03,20,12,49,22.00
2019,03,20,12,50,22.00
2019,03,20,12,51,22.00
2019,03,20,12,52,22.00
2019,03,20,12,53,22.10
2019,03,20,12,54,22.10
2019,03,20,12,55,22.10
2019,03,20,12,56,22.10
2019,03,20,12,57,22.00
2019,03,20,12,58,22.00
2019,03,20,12,59,21.90
2019,03,20,13,00,21.80
2019,03,20,13,01,21.70
2019,03,20,13,02,21.60
2019,03,20,13,03,21.60
2019,03,20,13,04,21.70
2019,03,20,13,05,21.70
2019,03,20,13,06,21.70
2019,03,20,13,07,21.60
2019,03,20,13,08,21.40
2019,03,20,13,09,21.10
2019,03,20,13,10,20.80
2019,03,20,13,11,20.70
2019,03,20,13,12,20.60
2019,03,20,13,13,20.60
2019,03,20,13,14,20.70
2019,03,20,13,15,20.80
2019,03,20,13,16,20.90
2019,03,20,13,17,21.10
2019,03,20,13,18,21.20
2019,03,20,13,19,21.30
2019,03,20,13,20,21.40
2019,03,20,13,21,21.60
2019,03,20,13,22,21.70
2019,03,20,13,23,21.70
2019,03,20,13,24,21.70
2019,03,20,13,25,21.70
2019,03,20,13,26,21.70
2019,03,20,13,27,21.70
2019,03,20,13,28,21.70
2019,03,20,13,29,21.70
2019,03,20,13,30,21.80
2019,03,20,13,31,21.80
2019,03,20,13,32,21.80
2019,03,20,13,33,21.80
2019,03,20,13,34,21.70
2019,03,20,13,35,21.70
2019,03,20,13,36,21.70
2019,03,20,13,37,21.80
2019,03,20,13,38,21.90
2019,03,20,13,39,22.10
2019,03,20,13,40,22.30
2019,03,20,13,41,22.40
2019,03,20,13,42,22.30
2019,03,20,13,43,22.30
2019,03,20,13,44,22.30
2019,03,20,13,45,22.30
2019,03,20,13,46,22.40
2019,03,20,13,47,22.50
2019,03,20,13,48,22.50
2019,03,20,13,49,22.50
2019,03,20,13,50,22.50
2019,03,20,13,51,22.40
2019,03,20,13,52,22.30
2019,03,20,13,53,22.30
2019,03,20,13,54,22.20
2019,03,20,13,55,22.10
2019,03,20,13,56,22.10
2019,03,20,13,57,22.10
2019,03,20,13,58,22.20
2019,03,20,13,59,22.20
2019,03,20,14,00,22.20
2019,03,20,14,01,22.20
2019,03,20,14,02,22.10
2019,03,20,14,03,22.10
2019,03,20,14,04,22.10
2019,03,20,14,05,22.10
2019,03,20,14,06,22.00
2019,03,20,14,07,22.00
2019,03,20,14,08,22.00
2019,03,20,14,09,22.00
2019,03,20,14,10,22.10
2019,03,20,14,11,22.20
2019,03,20,14,12,22.30
2019,03,20,14,13,22.30
2019,03,20,14,14,22.40
2019,03,20,14,15,22.50
2019,03,20,14,16,22.60
2019,03,20,14,17,22.60
2019,03,20,14,18,22.50
2019,03,20,14,19,22.30
2019,03,20,14,20,22.10
2019,03,20,14,21,21.90
2019,03,20,14,22,21.90
2019,03,20,14,23,21.90
2019,03,20,14,24,21.80
2019,03,20,14,25,21.80
2019,03,20,14,26,21.80
2019,03,20,14,27,21.80
2019,03,20,14,28,21.80
2019,03,20,14,29,21.80
2019,03,20,14,30,21.80
2019,03,20,14,31,21.70
2019,03,20,14,32,21.50
2019,03,20,14,33,21.20
2019,03,20,14,34,21.00
2019,03,20,14,35,20.90
2019,03,20,14,36,20.80
2019,03,20,14,37,20.80
2019,03,20,14,38,20.80
2019,03,20,14,39,20.70
2019,03,20,14,40,20.70
2019,03,20,14,41,20.60
2019,03,20,14,42,20.40
2019,03,20,14,43,20.20
2019,03,20,14,44,20.00
2019,03,20,14,45,19.70
2019,03,20,14,46,19.60
2019,03,20,14,47,19.50
2019,03,20,14,48,19.30
2019,03,20,14,49,19.20
2019,03,20,14,50,19.00
2019,03,20,14,51,18.90
2019,03,20,14,52,18.80
2019,03,20,14,53,18.60
2019,03,20,14,54,18.60
2019,03,20,14,55,18.50
2019,03,20,14,56,18.40
2019,03,20,14,57,18.50
2019,03,20,14,58,18.50
2019,03,20,14,59,18.70
2019,03,20,15,00,18.90
2019,03,20,15,01,19.00
2019,03,20,15,02,19.10
2019,03,20,15,03,19.20
2019,03,20,15,04,19.20
2019,03,20,15,05,19.40
2019,03,20,15,06,19.40
2019,03,20,15,07,19.50
2019,03,20,15,08,19.60
2019,03,20,15,09,19.70
2019,03,20,15,10,19.70
2019,03,20,15,11,19.80
2019,03,20,15,12,19.70
2019,03,20,15,13,19.60
2019,03,20,15,14,19.50
2019,03,20,15,15,19.50
2019,03,20,15,16,19.40
2019,03,20,15,17,19.30
2019,03,20,15,18,19.20
2019,03,20,15,19,19.20
2019,03,20,15,20,19.20
2019,03,20,15,21,19.20
2019,03,20,15,22,19.20
2019,03,20,15,23,19.20
2019,03,20,15,24,19.20
2019,03,20,15,25,19.30
2019,03,20,15,26,19.30
2019,03,20,15,27,19.30
2019,03,20,15,28,19.40
2019,03,20,15,29,19.50
2019,03,20,15,30,19.60
2019,03,20,15,31,19.70
2019,03,20,15,32,19.80
2019,03,20,15,33,19.90
2019,03,20,15,34,20.00
2019,03,20,15,35,20.10
2019,03,20,15,36,20.10
2019,03,20,15,37,20.20
2019,03,20,15,38,20.20
2019,03,20,15,39,20.20
2019,03,20,15,40,20.10
2019,03,20,15,41,20.10
2019,03,20,15,42,20.00
2019,03,20,15,43,20.00
2019,03,20,15,44,20.00
2019,03,20,15,45,20.00
2019,03,20,15,46,19.90
2019,03,20,15,47,19.90
2019,03,20,15,48,19.80
2019,03,20,15,49,19.70
2019,03,20,15,50,19.60
2019,03,20,15,51,19.50
2019,03,20,15,52,19.40
2019,03,20,15,53,19.30
2019,03,20,15,54,19.20
2019,03,20,15,55,19.20
2019,03,20,15,56,19.30
2019,03,20,15,57,19.30
2019,03,20,15,58,19.50
2019,03,20,15,59,19.50
2019,03,20,16,00,19.40
2019,03,20,16,01,19.40
2019,03,20,16,02,19.30
2019,03,20,16,03,19.30
2019,03,20,16,04,19.40
2019,03,20,16,05,19.40
2019,03,20,16,06,19.50
2019,03,20,16,07,19.50
2019,03,20,16,08,19.60
2019,03,20,16,09,19.70
2019,03,20,16,10,19.60
2019,03,20,16,11,19.50
2019,03,20,16,12,19.50
2019,03,20,16,13,19.40
2019,03,20,16,14,19.40
2019,03,20,16,15,19.40
2019,03,20,16,16,19.40
2019,03,20,16,17,19.40
2019,03,20,16,18,19.40
2019,03,20,16,19,19.50
2019,03,20,16,20,19.60
2019,03,20,16,21,19.70
2019,03,20,16,22,19.80
2019,03,20,16,23,19.90
2019,03,20,16,24,20.00
2019,03,20,16,25,20.10
2019,03,20,16,26,20.10
2019,03,20,16,27,20.00
2019,03,20,16,28,19.90
2019,03,20,16,29,19.90
2019,03,20,16,30,19.70
2019,03,20,16,31,19.50
2019,03,20,16,32,19.40
2019,03,20,16,33,19.40
2019,03,20,16,34,19.40
2019,03,20,16,35,19.40
2019,03,20,16,36,19.60
2019,03,20,16,37,19.70
2019,03,20,16,38,19.90
2019,03,20,16,39,19.90
2019,03,20,16,40,19.80
2019,03,20,16,41,19.80
2019,03,20,16,42,19.70
2019,03,20,16,43,19.60
2019,03,20,16,44,19.60
2019,03,20,16,45,19.50
2019,03,20,16,46,19.60
2019,03,20,16,47,19.60
2019,03,20,16,48,19.60
2019,03,20,16,49,19.60
2019,03,20,16,50,19.70
2019,03,20,16,51,19.70
2019,03,20,16,52,19.70
2019,03,20,16,53,19.80
2019,03,20,16,54,19.80
2019,03,20,16,55,19.90
2019,03,20,16,56,19.90
2019,03,20,16,57,20.00
2019,03,20,16,58,20.10
2019,03,20,16,59,20.10
2019,03,20,17,00,20.10
2019,03,20,17,01,20.20
2019,03,20,17,02,20.30
2019,03,20,17,03,20.30
2019,03,20,17,04,20.30
2019,03,20,17,05,20.20
2019,03,20,17,06,20.20
2019,03,20,17,07,20.20
2019,03,20,17,08,20.20
2019,03,20,17,09,20.10
2019,03,20,17,10,19.90
2019,03,20,17,11,19.70
2019,03,20,17,12,19.50
2019,03,20,17,13,19.30
2019,03,20,17,14,19.20
2019,03,20,17,15,19.10
2019,03,20,17,16,18.90
2019,03,20,17,17,18.80
2019,03,20,17,18,18.70
2019,03,20,17,19,18.60